Location: Washington
(38.8950°N, 77.0370°W)
Time: 08:07:50
(UTC-04:00)

Tiangong 1 - Visible Passes

Search period start: 23 August 2017 00:00
Search period end: 02 September 2017 00:00
Orbit: 311 x 337 km, 42.8° (Epoch: 23 August)

Date Brightness Start Highest point End Pass type
(mag) Time Alt. Az. Time Alt. Az. Time Alt. Az.
23 Aug 0.7 20:21:31 10° WNW 20:24:19 80° NNE 20:27:02 10° ESE visible
23 Aug 3.8 21:57:36 10° WSW 21:58:00 12° WSW 21:58:00 12° WSW visible
24 Aug 1.5 20:37:58 10° W 20:40:39 44° SSW 20:42:36 16° SE visible
25 Aug 2.9 20:54:44 10° W 20:56:47 19° SW 20:58:10 14° S visible
